21:25
Airports
History
Links
Donate
Help keep this website running!
PayPal
Bitcoin
This page is community maintained. The information is intended for PC simulator navigation or reference.
Always use approved charts for navigation.
VAAU
AURANGABAD
AURANGABAD (VAAU)
Aurangabad, Maharashtra, India (431007)
(C)
Lat/Lng:19° 51' 45.82" N / 75° 23' 53.21" E
19.862727 / 75.398113
Elevation:1911'ft / 582mMSL
ID / ICAO:VAAU
Runways:1
Longest:09-27
Asphalt 2,350m / 7,709ft
Controlled:Yes
METAR18:00 GMT 2017-11-19
Altimeter: 30.00
Visibility: 3.7 statute miles
Wind: 0 knots (from 000°)
Temp: 24°c / 75°f
Humidity: 73.6%

METAR: VAAU 191800Z 00000KT 6000 SCT020 24/19 Q1016 NOSIG

(Powered by phpweather)
Airport Radio Frequencies
ATIS: 127
Tower: 122.3
Approach: 122.3
Nearby VORs <50NM
Nearby NDBs
Runway 09 / 27
Dimensions:2349.6 x 45.1m 7709' x 148'ft
Surface:Asphalt
Edge Lights:High intensity
Runway 09 [A]Runway 27 [B]
Heading:087°TH 267°TH
Lat:
Lng:
19° 51' 44.45"N
75° 23' 12.83"E
19° 51' 47.18"N
75° 24' 33.58"E
User Notes and Comments
19° 51' 45.82" N / 75° 23' 53.21" E
Distance To
Airport ID:
Nearby Airports
(U) JALGAON 77.4 NM
VA47 N 11°
(U) DHULIA 85.1 NM
VA53 NNW 329°
(C) OZAR 98.0 NM
VA35 W 280°
(U) NASIK ROAD 103.6 NM
VANR W 273°
(U) MUROD KOND 122.1 NM
VO55 SE 145°
(U) AKOLA 122.1 NM
VAAK ENE 61°
(C) PUNE 131.1 NM
VAPO SW 227°
VFR Chart
Flight Planning at SkyVector.com